Location: Écuvilly
(49.6505°N, 2.9206°E)
Time: 06:40:08
(UTC+00:00)

NOAA 6 - Pass Details

Date: 17 November 2025
Orbit: 766 x 782 km, 98.6° (Epoch: 12 December)

Event Time Altitude Azimuth Distance (km) Brightness Sun altitude
Rises 17:53:00 0° 148° (SSE) 3,254 7.0 -17.6°
Reaches altitude 10° 17:55:21 10° 144° (SE) 2,328 6.2 -18.0°
Maximum altitude 18:00:20 53° 69° (ENE) 951 4.1 -18.8°
Drops below altitude 10° 18:05:20 10° 353° (N) 2,335 6.5 -19.6°
Sets 18:07:41 0° 349° (N) 3,264 7.3 -20.0°
